Regional Weather Roundup
Issued by NWS

Home | Current Version | Previous Version | Graphics & Text | Print | Product List | Glossary On
Versions: 1 2 3 4 5 6 7 8 9 10 11 12 13 14 15 16 17 18 19 20 21 22 23 24 25 26 27 28 29 30 31 32 33 34 35 36 37 38 39 40 41 42 43 44 45 46 47 48 49 50
000
ASUS43 KIND 211609
RWRIN

WEATHER ROUNDUP FOR INDIANA
NATIONAL WEATHER SERVICE INDIANAPOLIS IN
1200 PM EDT SAT APR 21 2018

NOTE: "FAIR" INDICATES FEW OR NO CLOUDS BELOW 12,000 FEET WITH NO
SIGNIFICANT WEATHER AND/OR OBSTRUCTIONS TO VISIBILITY.

* - STATION DOES NOT REPORT WEATHER SUCH AS PRECIPITATION OR FOG.

+ - STATION NOT QUALITY CONTROLLED BY THE NATIONAL WEATHER SERVICE.
    USE DATA WITH CAUTION...ESPECIALLY DEWPOINT AND RELATIVE
    HUMIDITY OBSERVATIONS.

INZ001>003-010>013-019-020-211700-
NORTHWEST INDIANA

CITY           SKY/WX    TMP DP  RH WIND       PRES   REMARKS
GARY /AIRPORT/ CLOUDY    50  23  34 CALM      30.47R
KNOX *+        CLOUDY    50  30  46 SW8       30.46R
LA PORTE +     FAIR      50  30  46 SW8       30.46S
MICHIGAN CITY+ FAIR      50  30  46 SW6       30.47S
MONTICELLO +   CLOUDY    49  30  47 SE3       30.45S
RENSSELAER +   PTSUNNY   48  21  34 E3        30.46F
VALPARAISO     CLOUDY    50  28  42 SW7       30.47R

$$

LMZ046-743>745-211700-
SOUTHERN LAKE MICHIGAN

STATION/POSITION TIME  TEMP    WIND        PRES    WAVE
                       AIR SEA DIR/SP/G            HT
                 (UTC) (F)     (DEG/KT/KT) (MB)    (FT)
BURNS HARBOR     1510   41     350/  2/  7 1032.2
MICHIGAN CITY    1540   39      40/  4/  5   N/A

$$

INZ004-005-014>016-021>024-211700-
NORTH CENTRAL INDIANA

CITY           SKY/WX    TMP DP  RH WIND       PRES   REMARKS
ELKHART        SUNNY     55  30  38 S5        30.45S
GOSHEN         FAIR      53  29  39 S6        30.45S
LOGANSPORT +   PTSUNNY   50  30  46 SE5       30.47R
PERU/GRISSOM   CLOUDY    52  30  43 SE7       30.43R
ROCHESTER +    FAIR      54  28  37 S3        30.47R
SOUTH BEND     FAIR      53  27  36 SW6       30.47R
WARSAW +       FAIR      52  30  43 CALM      30.45S

$$

INZ006>009-017-018-025>027-211700-
NORTHEAST INDIANA

CITY           SKY/WX    TMP DP  RH WIND       PRES   REMARKS
ANGOLA *+      FAIR      50  27  40 VRB6      30.46R
AUBURN +       FAIR      50  30  46 E3        30.47S
FORT WAYNE     CLOUDY    53  28  38 SE7       30.47R
HUNTINGTON +   FAIR      53  22  30 SE8       30.45S

$$

INZ028-029-035-036-043>045-051>053-211700-
WEST CENTRAL INDIANA

CITY           SKY/WX    TMP DP  RH WIND       PRES   REMARKS
CRAWFORDSVL +  FAIR      53  28  37 E10       30.42F
GREENCASTLE +  FAIR      55  27  33 E9        30.42S
LAFAYETTE      FAIR      53  30  41 VRB6      30.44S
TERRE HAUTE    FAIR      59  32  36 SE8       30.41S

$$

INZ030>032-037>040-046>048-054>057-064-065-211700-
CENTRAL INDIANA

CITY           SKY/WX    TMP DP  RH WIND       PRES   REMARKS
ANDERSON       FAIR      54  25  32 E9        30.44R
COLUMBUS       PTSUNNY   57 N/A N/A SE9       30.42S
FRANKFORT +    FAIR      56  28  35 SE7       30.46S
GREENWOOD *+   FAIR      55  27  33 E9        30.43S
INDIANAPOLIS   PTSUNNY   56  24  29 E9        30.42F
-EAGLE CREEK   FAIR      56  27  32 E13       30.42S
KOKOMO +       FAIR      51  30  44 E8        30.46S
MARION +       HAZE      52  26  37 CALM      30.46R VSB 1/4
MT COMFORT *+  FAIR      54  32  43 E12       30.43F
SHELBYVILLE    FAIR      58  22  24 E8        30.42S
ZIONSVILLE +   FAIR      53  26  36 SE8       30.44R

$$

INZ033-034-041-042-049-050-058-059-211700-
EAST CENTRAL INDIANA

CITY           SKY/WX    TMP DP  RH WIND       PRES   REMARKS
MUNCIE         FAIR      56  19  23 E14       30.44R
RICHMOND +     FAIR      50  23  34 SE7       30.43F

$$

INZ060-061-067>069-081>083-085>088-211700-
SOUTHWEST INDIANA

CITY           SKY/WX    TMP DP  RH WIND       PRES   REMARKS
EVANSVILLE     FAIR      60  31  33 VRB3      30.36F
HUNTINGBURG +  FAIR      61  33  35 E10       30.37F
WASHINGTON +   FAIR      59  29  32 E8        30.39S

$$

INZ062-063-066-070>080-084-089>092-211700-
SOUTH CENTRAL AND SOUTHEAST INDIANA

CITY           SKY/WX    TMP DP  RH WIND       PRES   REMARKS
BATESVILLE +   SUNNY     55  25  30 MISG      30.41F
BEDFORD +      FAIR      59  25  27 SE9       30.40F
BLOOMINGTON    FAIR      58  28  32 SE9       30.40F
FRENCH LICK *+ FAIR      57  18  21 E7        30.38F
MADISON *+     FAIR      57  21  24 E5        30.42S
NORTH VERNON + FAIR      57  27  30 E7        30.41S
SEYMOUR +      FAIR      59  30  33 SE8       30.40F

$$





USA.gov is the U.S. government's official web portal to all federal, state and local government web resources and services.